Location: Arpaise
(41.0333°N, 14.7333°E)
Time: 16:42:27
(UTC+00:00)

Cosmos 2237 Rocket - Pass Details

Date: 05 July 2020
Orbit: 834 x 850 km, 71.0° (Epoch: 10 August)

Event Time Altitude Azimuth Distance (km) Brightness Sun altitude
Exits shadow 20:32:50 24° 115° (ESE) 1,695 3.3 -17.1°
Maximum altitude 20:33:40 25° 102° (ESE) 1,661 3.3 -17.2°
Drops below altitude 10° 20:38:11 10° 49° (NE) 2,481 4.7 -17.7°
Sets 20:41:02 0° 36° (NE) 3,422 5.6 -18.0°
